1520247601.09,43453,10.75,72270.3,5.85,-26.93,-26.87,0,*75
1520247602.34,43454,10.69,72266.5,5.85,-26.39,-26.17,0,*7B
1520247603.58,43455,10.69,72266.8,5.83,-26.55,-26.55,0,*70
1520247604.84,43456,10.75,72270.5,5.85,-26.71,-26.71,0,*75
1520247606.09,43457,10.75,72268.5,5.83,-27.35,-27.19,0,*7C
1520247607.28,43458,10.69,72266.3,5.83,-26.87,-26.87,0,*7D
1520247608.52,43459,10.75,72268.3,5.81,-26.55,-26.45,0,*7F
1520247609.75,43460,10.75,72270.0,5.81,-26.45,-26.39,0,*7F
1520247611.0,43461,10.69,72266.5,5.81,-26.07,-25.97,0,*7F
1520247612.24,43462,10.69,72264.3,5.79,-25.75,-25.81,0,*7A
1520247613.47,43463,10.75,72266.8,5.81,-25.65,-25.65,0,*77
1520247614.74,43464,10.75,72268.3,5.81,-25.75,-25.81,0,*7B
1520247615.94,43465,10.75,72270.3,5.83,-25.87,-25.87,0,*73
1520247617.13,43466,10.69,72266.8,5.83,-26.23,-26.23,0,*70
1520247618.35,43467,10.69,72266.8,5.83,-26.33,-26.49,0,*7C
1520247619.62,43468,10.69,72264.5,5.81,-26.29,-26.17,0,*71
1520247620.9,43469,10.75,72268.0,5.81,-26.77,-26.81,0,*74
1520247622.14,43470,10.75,72266.5,5.81,-26.23,-26.13,0,*76
1520247623.38,43471,10.75,72270.8,5.81,-26.23,-26.29,0,*7E
1520247624.57,43472,10.69,72264.5,5.79,-26.45,-26.45,0,*70
1520247625.79,43473,10.69,72266.8,5.79,-26.29,-26.23,0,*7B
1520247627.02,43474,10.75,72268.5,5.79,-25.81,-25.65,0,*7C
1520247628.24,43475,10.69,72268.0,5.81,-26.07,-26.07,0,*70
1520247629.46,43476,10.75,72270.5,5.79,-25.97,-26.07,0,*7E
1520247630.69,43477,10.75,72268.3,5.79,-26.13,-26.07,0,*70
1520247631.93,43478,10.69,72266.0,5.79,-26.29,-26.29,0,*7A
1520247633.19,43479,10.75,72270.5,5.77,-28.05,-28.15,0,*74
1520247634.44,43480,10.69,72268.0,5.77,-28.21,-28.15,0,*74
1520247635.66,43481,10.69,72268.0,5.75,-28.25,-28.37,0,*73
1520247636.92,43482,10.75,72270.0,5.73,-27.19,-27.19,0,*75
1520247638.12,43483,10.75,72266.8,5.71,-27.93,-28.15,0,*77
1520247639.36,43484,10.75,72268.8,5.71,-28.75,-28.79,0,*7D
1520247640.59,43485,10.69,72266.8,5.67,-28.05,-28.15,0,*76
1520247641.8,43486,10.75,72266.5,5.63,-28.79,-29.07,0,*78
1520247643.08,43487,10.69,72266.3,5.61,-28.05,-28.09,0,*7F
1520247644.32,43488,10.69,72266.0,5.61,-27.67,-27.83,0,*76
1520247645.52,43489,10.69,72266.0,5.59,-27.93,-27.93,0,*76
1520247646.77,43490,10.69,72266.0,5.59,-27.23,-27.23,0,*7E
1520247648.02,43491,10.69,72264.8,5.57,-26.07,-25.97,0,*7B
1520247649.27,43492,10.69,72266.3,5.57,-26.93,-27.07,0,*7E
1520247650.53,43493,10.75,72268.5,5.57,-27.29,-27.23,0,*79
1520247651.77,43494,10.69,72266.8,5.57,-26.87,-26.77,0,*7B
1520247653.02,43495,10.69,72266.5,5.57,-26.23,-26.13,0,*76
1520247654.25,43496,10.75,72270.8,5.59,-27.61,-27.71,0,*79
1520247655.45,43497,10.75,72266.5,5.53,-28.31,-28.31,0,*73
1520247656.7,43498,10.69,72264.0,5.51,-28.37,-28.43,0,*7D
1520247657.93,43499,10.75,72270.0,5.49,-29.35,-29.45,0,*71
1520247659.15,43500,10.75,72270.0,5.49,-28.25,-28.31,0,*72
1520247660.36,43501,10.75,72270.8,5.41,-28.31,-28.31,0,*7E
1520247661.62,43502,10.69,72266.5,5.43,-28.47,-28.47,0,*7F
1520247662.83,43503,10.69,72266.0,5.41,-28.85,-28.85,0,*7C
1520247664.05,43504,10.75,72268.5,5.41,-28.53,-28.43,0,*7A
1520247665.25,43505,10.69,72264.0,5.37,-27.71,-27.71,0,*7B
1520247666.5,43506,10.75,72270.8,5.37,-27.19,-27.23,0,*71
1520247667.75,43507,10.75,72268.8,5.35,-27.39,-27.29,0,*7A
1520247668.98,43508,10.69,72266.8,5.35,-27.13,-27.13,0,*74
1520247670.24,43509,10.75,72270.3,5.35,-27.07,-26.97,0,*7D
1520247671.46,43510,10.75,72268.3,5.37,-26.29,-25.91,0,*7F
1520247672.68,43511,10.75,72266.5,5.37,-26.55,-26.61,0,*79
1520247673.91,43512,10.69,72266.5,5.35,-26.61,-26.61,0,*7F
1520247675.13,43513,10.69,72268.0,5.37,-26.87,-26.77,0,*73
1520247676.33,43514,10.69,72266.5,5.37,-26.61,-26.61,0,*7B
1520247677.56,43515,10.69,72268.0,5.37,-26.93,-26.87,0,*7F
1520247678.76,43516,10.69,72266.3,5.37,-26.87,-26.87,0,*79
1520247680.0,43517,10.75,72268.3,5.37,-27.35,-27.23,0,*7F
1520247681.29,43518,10.75,72270.3,5.35,-26.97,-26.97,0,*75
1520247682.52,43519,10.69,72266.8,5.35,-27.07,-27.13,0,*71
1520247683.74,43520,10.69,72266.0,5.33,-27.29,-27.45,0,*72
1520247684.99,43521,10.75,72264.8,5.33,-27.99,-28.09,0,*7F
1520247686.19,43522,10.69,72266.3,5.33,-27.07,-27.07,0,*7A
1520247687.41,43523,10.69,72266.8,5.31,-27.51,-27.55,0,*7D
1520247688.66,43524,10.69,72264.8,5.29,-27.99,-27.99,0,*77
1520247689.91,43525,10.75,72266.5,5.29,-27.45,-27.45,0,*76
1520247691.1,43526,10.75,72266.5,5.29,-27.55,-27.55,0,*75
1520247692.31,43527,10.69,72266.5,5.29,-27.29,-27.29,0,*74
1520247693.51,43528,10.69,72266.5,5.29,-27.03,-27.13,0,*7A
1520247694.72,43529,10.75,72268.3,5.23,-27.19,-27.07,0,*7F
1520247695.92,43530,10.69,72264.3,5.23,-27.13,-27.13,0,*78
1520247697.17,43531,10.69,72266.3,5.25,-27.35,-27.35,0,*7F
1520247698.38,43532,10.69,72266.3,5.25,-27.07,-27.07,0,*7C
1520247699.62,43533,10.75,72268.3,5.23,-27.23,-27.39,0,*70
1520247700.85,43534,10.69,72266.5,5.25,-28.05,-27.93,0,*7A
1520247702.13,43535,10.69,72266.8,5.21,-28.59,-28.63,0,*76
1520247703.37,43536,10.75,72268.0,5.21,-28.69,-28.79,0,*7D
1520247704.6,43537,10.69,72266.3,5.19,-28.85,-28.91,0,*73
1520247705.85,43538,10.69,72266.5,5.17,-28.75,-28.69,0,*7A
1520247707.1,43539,10.75,72266.5,5.15,-28.09,-28.21,0,*7E
1520247708.37,43540,10.75,72266.5,5.13,-28.43,-28.43,0,*7C
1520247709.59,43541,10.69,72266.3,5.13,-27.71,-27.71,0,*7D
1520247710.79,43542,10.75,72268.5,5.11,-27.71,-27.55,0,*7A
1520247712.04,43543,10.69,72268.0,5.13,-28.25,-28.37,0,*7C
1520247713.25,43544,10.69,72264.5,5.11,-27.83,-27.93,0,*7B
1520247714.5,43545,10.69,72264.8,5.09,-27.83,-27.77,0,*79
1520247715.71,43546,10.75,72268.8,5.07,-28.37,-28.31,0,*79
1520247716.96,43547,10.75,72270.5,5.07,-27.99,-28.05,0,*74
1520247718.16,43548,10.75,72268.0,5.07,-28.37,-28.37,0,*71
1520247719.44,43549,10.69,72266.0,5.01,-27.83,-27.83,0,*76
1520247720.64,43550,10.69,72264.5,5.03,-27.71,-27.67,0,*7B
1520247721.87,43551,10.69,72266.3,5.01,-27.93,-27.89,0,*74
1520247723.09,43552,10.69,72264.5,5.01,-27.89,-27.89,0,*7C
1520247724.34,43553,10.69,72268.5,5.01,-26.87,-26.93,0,*78
1520247725.61,43554,10.69,72266.5,5.01,-26.71,-26.71,0,*7A
1520247726.88,43555,10.69,72264.0,5.01,-26.77,-26.71,0,*7D
1520247728.11,43556,10.69,72264.3,5.01,-26.65,-26.49,0,*76
1520247729.34,43557,10.69,72266.5,5.01,-26.39,-26.23,0,*72
1520247730.55,43558,10.69,72266.8,5.01,-26.23,-26.23,0,*76
1520247731.77,43559,10.75,72268.8,5.03,-26.55,-26.49,0,*78
1520247733.03,43560,10.69,72266.3,5.01,-26.77,-26.65,0,*7E
1520247734.28,43561,10.69,72264.5,5.03,-26.77,-26.71,0,*78
1520247735.49,43562,10.69,72266.8,5.03,-26.65,-26.49,0,*73
1520247736.72,43563,10.75,72268.5,5.01,-26.65,-26.65,0,*7E
1520247737.97,43564,10.69,72268.3,5.03,-26.17,-26.17,0,*7B
1520247739.22,43565,10.75,72268.0,5.01,-26.17,-25.91,0,*75
1520247740.48,43566,10.75,72270.0,5.03,-26.33,-26.33,0,*79
1520247741.71,43567,10.69,72268.0,5.03,-26.17,-26.07,0,*79
1520247742.92,43568,10.75,72268.3,5.03,-27.07,-27.03,0,*73
1520247744.12,43569,10.75,72268.3,5.07,-25.35,-25.35,0,*72
1520247745.33,43570,10.69,72266.3,5.03,-26.07,-26.03,0,*7A
1520247746.56,43571,10.69,72266.8,5.03,-26.49,-26.33,0,*72
1520247747.81,43572,10.75,72268.3,5.03,-27.23,-27.19,0,*75
1520247749.07,43573,10.69,72266.0,5.01,-25.87,-25.71,0,*76
1520247750.31,43574,10.75,72270.8,5.09,-25.45,-25.19,0,*79
1520247751.57,43575,10.75,72270.0,5.07,-26.29,-26.13,0,*76
1520247752.79,43576,10.69,72266.8,5.07,-26.45,-26.13,0,*7F
1520247754.02,43577,10.75,72268.5,5.07,-25.61,-25.45,0,*7B
1520247755.22,43578,10.69,72266.3,5.07,-26.61,-26.45,0,*74
1520247756.46,43579,10.69,72266.5,5.09,-25.35,-25.29,0,*70
1520247757.72,43580,10.69,72270.0,5.09,-25.71,-25.65,0,*7E
1520247759.0,43581,10.75,72268.5,5.09,-26.13,-25.97,0,*75
1520247760.23,43582,10.69,72264.0,5.11,-26.13,-26.07,0,*75
1520247761.46,43583,10.69,72270.8,5.11,-25.75,-25.65,0,*70
1520247762.69,43584,10.69,72268.3,5.11,-25.55,-25.23,0,*77
1520247763.9,43585,10.69,72266.5,5.11,-25.45,-25.13,0,*74
1520247765.14,43586,10.69,72270.3,5.11,-25.75,-25.65,0,*75
1520247766.39,43587,10.69,72270.0,5.11,-25.55,-25.45,0,*74
1520247767.61,43588,10.69,72268.3,5.13,-25.61,-25.35,0,*79
1520247768.84,43589,10.75,72268.5,5.13,-26.03,-26.03,0,*79
1520247770.13,43590,10.69,72266.3,5.13,-25.71,-25.71,0,*71
1520247771.35,43591,10.69,72268.3,5.11,-26.13,-25.91,0,*7B
1520247772.62,43592,10.69,72270.5,5.13,-26.55,-26.33,0,*73
1520247773.86,43593,10.69,72270.5,5.13,-26.71,-26.61,0,*73
1520247775.09,43594,10.69,72268.0,5.11,-26.55,-26.39,0,*7D
1520247776.34,43595,10.75,72270.8,5.11,-26.29,-26.13,0,*7F
1520247777.54,43596,10.69,72264.5,5.11,-26.61,-26.45,0,*73
1520247778.77,43597,10.75,72268.5,5.11,-25.81,-25.65,0,*7E
1520247780.01,43598,10.75,72268.5,5.11,-25.81,-25.81,0,*7B
1520247781.24,43599,10.69,72266.5,5.11,-25.91,-25.75,0,*70
1520247782.47,43600,10.69,72268.0,5.11,-25.61,-25.55,0,*7E
1520247783.67,43601,10.69,72270.0,5.11,-25.23,-25.13,0,*7B
1520247784.89,43602,10.75,72270.0,5.13,-25.09,-25.09,0,*79
1520247786.14,43603,10.69,72270.5,5.13,-26.17,-25.91,0,*75
1520247787.36,43604,10.69,72270.8,5.13,-25.49,-25.39,0,*78
1520247788.65,43605,10.69,72266.3,5.13,-25.55,-25.55,0,*7E
1520247789.92,43606,10.69,72268.8,5.13,-25.75,-25.71,0,*79
1520247791.16,43607,10.69,72268.5,5.11,-25.75,-25.61,0,*7B
1520247792.41,43608,10.69,72268.0,5.11,-25.55,-25.29,0,*7A
1520247793.63,43609,10.69,72264.3,5.13,-25.35,-25.19,0,*7C
1520247794.84,43610,10.69,72268.0,5.13,-25.23,-25.19,0,*73
1520247796.07,43611,10.75,72270.3,5.13,-24.77,-24.61,0,*7C
1520247797.31,43612,10.69,72268.0,5.13,-25.03,-24.93,0,*70
1520247798.56,43613,10.69,72268.5,5.13,-25.03,-24.93,0,*71
1520247799.79,43614,10.69,72270.3,5.13,-26.07,-26.03,0,*7A
1520247801.03,43615,10.75,72268.3,5.13,-26.49,-26.55,0,*72
1520247802.29,43616,10.69,72270.0,5.11,-26.77,-26.81,0,*77
1520247803.54,43617,10.69,72266.0,5.11,-26.29,-26.29,0,*7F
1520247804.77,43618,10.69,72268.0,5.11,-26.39,-26.29,0,*71
1520247805.97,43619,10.69,72266.0,5.11,-25.65,-25.65,0,*71
1520247807.18,43620,10.69,72268.8,5.11,-25.65,-25.61,0,*7F
1520247808.38,43621,10.75,72268.0,5.11,-25.65,-25.49,0,*74
1520247809.66,43622,10.69,72266.8,5.09,-26.29,-26.13,0,*79
1520247810.92,43623,10.69,72268.0,5.09,-26.03,-25.97,0,*7F
1520247812.16,43624,10.69,72268.0,5.07,-25.71,-25.61,0,*79
1520247813.36,43625,10.69,72266.8,5.07,-25.65,-25.65,0,*79
1520247814.63,43626,10.69,72266.5,5.09,-25.71,-25.65,0,*71
1520247815.86,43627,10.69,72268.5,5.09,-25.61,-25.61,0,*75
1520247817.06,43628,10.69,72268.3,5.07,-25.61,-25.35,0,*75
1520247818.28,43629,10.69,72268.8,5.07,-25.87,-25.81,0,*73
1520247819.54,43630,10.69,72268.0,5.07,-25.97,-25.97,0,*7D
1520247820.8,43631,10.69,72266.5,5.09,-26.13,-26.03,0,*73
1520247822.05,43632,10.69,72268.8,5.09,-26.45,-26.29,0,*7B
1520247823.3,43633,10.69,72264.0,5.03,-26.71,-26.55,0,*7C
1520247824.53,43634,10.69,72268.8,5.03,-26.77,-26.65,0,*7E
1520247825.75,43635,10.75,72272.0,5.03,-26.07,-26.17,0,*7D
1520247827.01,43636,10.75,72268.0,5.01,-26.17,-25.91,0,*70
1520247828.26,43637,10.75,72270.3,5.01,-25.87,-25.71,0,*75
1520247829.49,43638,10.69,72268.3,5.01,-26.07,-25.91,0,*7F
1520247830.71,43639,10.69,72268.0,5.01,-26.07,-25.87,0,*79
1520247831.96,43640,10.69,72270.3,5.01,-26.23,-26.17,0,*7B
1520247833.18,43641,10.69,72268.5,4.99,-25.45,-25.13,0,*7E
1520247834.43,43642,10.69,72270.0,4.99,-25.45,-25.29,0,*74
1520247835.66,43643,10.69,72268.3,4.99,-25.61,-25.45,0,*79
1520247836.89,43644,10.69,72268.8,4.99,-25.97,-25.91,0,*7E
1520247838.15,43645,10.75,72270.8,4.99,-26.29,-26.13,0,*70
1520247839.41,43646,10.69,72270.0,4.97,-26.03,-25.81,0,*7D
1520247840.63,43647,10.69,72270.0,4.97,-25.49,-25.19,0,*70
1520247841.83,43648,10.75,72268.5,4.99,-24.93,-24.77,0,*7E
1520247843.06,43649,10.69,72268.3,4.97,-25.49,-25.35,0,*70
1520247844.31,43650,10.69,72266.8,4.97,-26.13,-26.03,0,*72
1520247845.57,43651,10.69,72270.3,4.99,-25.55,-25.29,0,*77
1520247846.8,43652,10.69,72270.5,4.99,-24.67,-24.47,0,*7D
1520247848.03,43653,10.69,72268.8,4.99,-24.67,-24.61,0,*78
1520247849.28,43654,10.69,72270.5,5.01,-25.23,-25.03,0,*7B
1520247850.5,43655,10.69,72266.8,4.97,-25.35,-25.13,0,*72
1520247851.71,43656,10.69,72270.8,4.99,-24.61,-24.47,0,*7F
1520247852.94,43657,10.69,72270.0,5.01,-24.51,-24.35,0,*78
1520247854.19,43658,10.69,72270.8,4.99,-24.11,-23.85,0,*7F
1520247855.4,43659,10.69,72270.0,5.03,-25.23,-25.09,0,*7E
1520247856.67,43660,10.69,72270.0,5.01,-25.03,-25.03,0,*7E
1520247857.95,43661,10.69,72268.8,5.01,-25.75,-25.71,0,*7B
1520247859.2,43662,10.69,72272.5,5.01,-26.55,-26.23,0,*7D
1520247860.46,43663,10.69,72270.5,4.99,-26.13,-25.97,0,*72
1520247861.71,43664,10.69,72270.8,4.97,-26.29,-26.03,0,*7C
1520247862.97,43665,10.69,72268.3,4.97,-25.75,-25.61,0,*70
1520247864.25,43666,10.69,72268.3,4.97,-26.29,-26.13,0,*7F
1520247865.53,43667,10.69,72270.3,4.97,-26.29,-26.17,0,*7A
1520247866.78,43668,10.69,72268.0,4.97,-25.81,-25.61,0,*76
1520247868.02,43669,10.69,72268.0,4.95,-25.75,-25.61,0,*7E
1520247869.23,43670,10.75,72272.3,4.95,-25.87,-25.65,0,*7F
1520247870.5,43671,10.75,72272.3,4.93,-26.17,-26.03,0,*71
1520247871.74,43672,10.75,72270.8,4.95,-26.03,-25.97,0,*7F
1520247873.0,43673,10.69,72270.3,4.95,-25.75,-25.45,0,*73
1520247874.29,43674,10.69,72268.3,4.93,-25.71,-25.55,0,*77
1520247875.51,43675,10.69,72270.8,4.93,-25.23,-25.19,0,*79
1520247876.77,43676,10.69,72270.3,4.93,-25.91,-25.71,0,*7D
1520247878.01,43677,10.69,72268.0,4.95,-24.83,-24.61,0,*78
1520247879.26,43678,10.69,72270.0,4.93,-24.11,-23.89,0,*7B
1520247880.52,43679,10.69,72270.3,4.93,-24.77,-24.67,0,*7D
1520247881.72,43680,10.69,72270.3,4.95,-25.13,-24.97,0,*71
1520247882.95,43681,10.75,72274.0,4.93,-25.19,-24.93,0,*78
1520247884.22,43682,10.69,72270.3,4.97,-24.83,-24.67,0,*76
1520247885.47,43683,10.69,72268.3,4.97,-24.67,-24.51,0,*78
1520247886.7,43684,10.69,72270.0,4.97,-24.47,-24.31,0,*7B
1520247887.93,43685,10.75,72270.3,4.99,-23.99,-23.79,0,*7B
1520247889.13,43686,10.69,72268.8,4.99,-24.77,-24.57,0,*74
1520247890.41,43687,10.69,72270.5,4.97,-25.03,-24.87,0,*74
1520247891.67,43688,10.69,72266.0,4.99,-25.71,-25.55,0,*7E
1520247892.89,43689,10.69,72268.3,4.97,-24.97,-24.93,0,*73
1520247894.12,43690,10.69,72268.5,4.97,-24.61,-24.47,0,*7B
1520247895.37,43691,10.69,72270.8,4.97,-23.99,-23.89,0,*7F
1520247896.6,43692,10.69,72270.8,4.99,-23.79,-23.65,0,*7E
1520247897.88,43693,10.69,72268.3,5.01,-24.41,-24.21,0,*74
1520247899.13,43694,10.69,72270.3,5.01,-23.65,-23.59,0,*7A
1520247900.38,43695,10.69,72272.0,5.03,-24.41,-24.41,0,*76
1520247901.62,43696,10.69,72268.8,5.01,-26.49,-26.39,0,*70
1520247902.87,43697,10.69,72270.5,5.01,-26.17,-26.07,0,*77
1520247904.12,43698,10.69,72268.8,4.99,-25.29,-25.29,0,*79
1520247905.39,43699,10.69,72268.3,4.99,-25.97,-25.97,0,*78
1520247906.61,43700,10.69,72268.8,4.97,-26.87,-26.87,0,*77
1520247907.89,43701,10.75,72270.8,4.97,-27.45,-27.35,0,*71
1520247909.12,43702,10.69,72268.3,4.95,-27.93,-27.99,0,*7D
1520247910.41,43703,10.69,72266.0,4.93,-28.21,-28.25,0,*74
1520247911.61,43704,10.69,72266.0,4.89,-27.77,-27.71,0,*7A
1520247912.84,43705,10.69,72264.5,4.87,-28.15,-28.15,0,*73
1520247914.06,43706,10.69,72268.3,4.85,-28.31,-28.21,0,*73
1520247915.35,43707,10.69,72270.5,4.79,-26.97,-26.97,0,*70
1520247916.62,43708,10.69,72270.0,4.79,-27.35,-27.23,0,*78
1520247917.87,43709,10.69,72268.8,4.79,-26.87,-26.81,0,*78
1520247919.1,43710,10.75,72270.8,4.77,-26.71,-26.61,0,*79
1520247920.35,43711,10.69,72272.3,4.75,-27.67,-27.61,0,*7D
1520247921.57,43712,10.69,72270.8,4.73,-27.35,-27.13,0,*7A
1520247922.83,43713,10.69,72266.3,4.73,-26.17,-26.17,0,*7F
1520247924.08,43714,10.69,72268.0,4.73,-26.29,-26.13,0,*71
1520247925.34,43715,10.69,72268.8,4.73,-25.81,-25.75,0,*72
1520247926.53,43716,10.69,72272.8,4.73,-25.65,-25.35,0,*7F
1520247927.73,43717,10.69,72270.3,4.73,-25.35,-25.19,0,*75
1520247928.94,43718,10.69,72268.5,4.73,-25.65,-25.49,0,*7A
1520247930.13,43719,10.69,72268.3,4.73,-24.93,-24.77,0,*7F
1520247931.36,43720,10.69,72268.5,4.75,-25.49,-25.35,0,*72
1520247932.6,43721,10.69,72268.8,4.73,-25.45,-25.29,0,*74
1520247933.85,43722,10.75,72272.8,4.75,-25.19,-25.03,0,*70
1520247935.07,43723,10.69,72274.3,4.73,-25.03,-24.97,0,*70
1520247936.29,43724,10.69,72268.0,4.73,-25.03,-24.93,0,*73
1520247937.57,43725,10.69,72270.8,4.75,-25.29,-25.29,0,*7C
1520247938.8,43726,10.69,72272.8,4.75,-26.49,-26.45,0,*73
1520247940.08,43727,10.69,72270.3,4.75,-26.17,-26.17,0,*7E
1520247941.28,43728,10.69,72274.0,4.73,-26.49,-26.49,0,*77
1520247942.5,43729,10.69,72272.8,4.73,-26.45,-26.17,0,*71
1520247943.71,43730,10.69,72272.3,4.73,-24.93,-24.67,0,*75
1520247944.97,43731,10.69,72274.3,4.73,-26.17,-26.13,0,*7B
1520247946.17,43732,10.75,72274.8,4.73,-27.51,-27.51,0,*7C
1520247947.42,43733,10.75,72272.0,4.73,-26.93,-26.81,0,*7E
1520247948.62,43734,10.69,72268.0,4.69,-27.13,-27.03,0,*70
1520247949.85,43735,10.69,72268.8,4.67,-27.93,-27.77,0,*74
1520247951.05,43736,10.69,72272.0,4.65,-27.77,-27.67,0,*7E
1520247952.27,43737,10.69,72268.3,4.65,-27.35,-27.29,0,*73
1520247953.5,43738,10.69,72270.3,4.63,-27.51,-27.51,0,*77
1520247954.79,43739,10.69,72268.0,4.63,-27.61,-27.61,0,*76
1520247955.99,43740,10.69,72268.8,4.57,-27.71,-27.71,0,*7F
1520247957.19,43741,10.69,72270.8,4.57,-27.29,-27.13,0,*77
1520247958.42,43742,10.75,72272.3,4.53,-27.13,-26.97,0,*74
1520247959.67,43743,10.69,72270.5,4.53,-26.13,-25.97,0,*77
1520247960.91,43744,10.75,72270.3,4.55,-25.61,-25.49,0,*73
1520247962.15,43745,10.69,72268.8,4.55,-26.71,-26.61,0,*79
1520247963.43,43746,10.69,72268.3,4.55,-26.55,-26.55,0,*7B
1520247964.66,43747,10.69,72268.3,4.53,-27.07,-26.93,0,*70
1520247965.93,43748,10.69,72268.8,4.51,-27.39,-27.23,0,*7A
1520247967.13,43749,10.69,72266.0,4.49,-27.29,-27.13,0,*70
1520247968.38,43750,10.69,72268.5,4.49,-27.35,-27.19,0,*7F
1520247969.61,43751,10.69,72270.8,4.49,-27.13,-26.97,0,*7D
1520247970.87,43752,10.69,72268.3,4.47,-26.97,-26.87,0,*7C
1520247972.09,43753,10.69,72266.0,4.45,-27.19,-27.03,0,*75
1520247973.33,43754,10.69,72264.3,4.45,-27.35,-27.19,0,*77
1520247974.54,43755,10.69,72268.8,4.45,-27.07,-26.87,0,*71
1520247975.8,43756,10.69,72264.8,4.43,-26.17,-26.03,0,*78
1520247977.06,43757,10.69,72266.0,4.43,-26.03,-25.75,0,*7E
1520247978.28,43758,10.69,72264.3,4.43,-26.23,-26.07,0,*75
1520247979.5,43759,10.69,72264.3,4.41,-25.29,-24.97,0,*74
1520247980.78,43760,10.69,72268.3,4.43,-24.41,-24.25,0,*7A
1520247982.06,43761,10.69,72266.3,4.43,-24.41,-24.21,0,*7F
1520247983.29,43762,10.69,72266.0,4.45,-24.25,-24.05,0,*7E
1520247984.54,43763,10.69,72264.0,4.47,-23.89,-23.69,0,*71
1520247985.8,43764,10.69,72264.0,4.49,-24.71,-24.67,0,*71
1520247987.06,43765,10.69,72266.3,4.49,-24.41,-24.21,0,*71
1520247988.29,43766,10.69,72264.0,4.53,-24.83,-24.61,0,*73
1520247989.55,43767,10.69,72266.8,4.51,-26.49,-26.29,0,*7A
1520247990.82,43768,10.69,72264.5,4.51,-26.13,-25.81,0,*7B
1520247992.02,43769,10.69,72266.0,4.49,-25.35,-25.19,0,*75
1520247993.26,43770,10.69,72264.8,4.49,-26.33,-26.03,0,*70
1520247994.5,43771,10.69,72264.3,4.49,-25.71,-25.49,0,*79
1520247995.71,43772,10.69,72262.0,4.49,-25.87,-25.49,0,*73
1520247996.91,43773,10.69,72262.0,4.49,-25.65,-25.35,0,*75
1520247998.11,43774,10.69,72262.3,4.49,-25.39,-25.19,0,*75
1520247999.36,43775,10.69,72262.3,4.51,-24.97,-24.87,0,*7E
1520248000.59,43776,10.69,72256.8,4.51,-24.47,-24.31,0,*7D
1520248001.84,43777,10.69,72258.8,4.51,-24.67,-24.51,0,*78
1520248003.06,43778,10.69,72256.8,4.51,-26.61,-26.49,0,*78
1520248004.26,43779,10.69,72258.5,4.49,-25.87,-25.65,0,*76
1520248005.51,43780,10.69,72260.0,4.51,-24.67,-24.35,0,*72
1520248006.74,43781,10.69,72260.5,4.51,-24.51,-24.31,0,*72
1520248007.95,43782,10.69,72260.0,4.49,-24.51,-24.31,0,*78
1520248009.2,43783,10.69,72262.3,4.51,-24.31,-23.99,0,*73
1520248010.43,43784,10.69,72262.5,4.53,-24.47,-24.15,0,*74
1520248011.65,43785,10.69,72262.5,4.53,-24.67,-24.35,0,*75
1520248012.88,43786,10.69,72260.8,4.53,-24.47,-24.15,0,*76
1520248014.11,43787,10.69,72262.0,4.55,-23.89,-23.59,0,*7B
1520248015.34,43788,10.69,72260.0,4.55,-23.59,-23.13,0,*77
1520248016.57,43789,10.69,72262.8,4.61,-23.99,-23.75,0,*7D
1520248017.8,43790,10.69,72258.3,4.57,-24.25,-24.05,0,*70
1520248019.05,43791,10.69,72266.5,4.63,-24.31,-23.99,0,*71
1520248020.28,43792,10.69,72266.5,4.63,-23.39,-22.97,0,*72
1520248021.53,43793,10.69,72266.5,4.63,-23.79,-23.53,0,*7E
1520248022.78,43794,10.69,72260.3,4.63,-23.33,-23.13,0,*73
1520248024.01,43795,10.69,72260.8,4.65,-23.95,-23.79,0,*74
1520248025.27,43796,10.69,72264.8,4.67,-25.71,-25.39,0,*7B
1520248026.54,43797,10.69,72262.0,4.67,-25.29,-25.03,0,*7E
1520248027.79,43798,10.69,72260.8,4.67,-24.11,-23.89,0,*7F
1520248029.07,43799,10.69,72264.0,4.67,-24.25,-24.11,0,*7F
1520248030.32,43800,10.69,72260.8,4.67,-25.29,-25.13,0,*7E
1520248031.54,43801,10.69,72262.0,4.69,-25.09,-24.87,0,*7F
1520248032.74,43802,10.69,72264.8,4.65,-24.77,-24.47,0,*74
1520248033.95,43803,10.69,72266.3,4.65,-24.93,-24.67,0,*7D
1520248035.18,43804,10.69,72262.8,4.67,-25.13,-25.09,0,*78
1520248036.43,43805,10.69,72264.0,4.67,-25.13,-24.87,0,*7E
1520248037.69,43806,10.75,72266.5,4.67,-24.47,-24.11,0,*72
1520248038.93,43807,10.69,72262.3,4.63,-23.69,-23.39,0,*71
1520248040.19,43808,10.69,72260.8,4.67,-24.25,-24.05,0,*7D
1520248041.44,43809,10.69,72266.5,4.69,-23.53,-23.29,0,*7D
1520248042.66,43810,10.69,72266.8,4.69,-23.39,-23.03,0,*71
1520248043.87,43811,10.69,72264.5,4.69,-23.75,-23.59,0,*77
1520248045.12,43812,10.69,72264.8,4.73,-24.15,-23.85,0,*7F
1520248046.34,43813,10.75,72268.0,4.73,-23.79,-23.49,0,*73
1520248047.57,43814,10.69,72266.3,4.73,-23.33,-23.09,0,*7E
1520248048.83,43815,10.69,72264.5,4.73,-23.99,-23.85,0,*7B
1520248050.05,43816,10.69,72262.3,4.73,-23.99,-23.79,0,*7B
1520248051.32,43817,10.69,72260.8,4.75,-23.95,-23.53,0,*78
1520248052.55,43818,10.69,72264.3,4.75,-22.87,-22.53,0,*74
1520248053.78,43819,10.69,72266.5,4.77,-23.59,-23.33,0,*72
1520248054.98,43820,10.69,72264.5,4.77,-23.89,-23.59,0,*79
1520248056.21,43821,10.69,72262.8,4.77,-23.59,-23.33,0,*79
1520248057.5,43822,10.69,72262.0,4.79,-24.71,-24.25,0,*79
1520248058.78,43823,10.69,72264.0,4.79,-24.11,-23.85,0,*73
1520248060.01,43824,10.69,72262.0,4.79,-23.43,-23.13,0,*7B
1520248061.23,43825,10.69,72262.0,4.81,-23.59,-23.29,0,*7F
1520248062.46,43826,10.69,72262.0,4.81,-23.29,-23.09,0,*79
1520248063.67,43827,10.69,72262.0,4.81,-23.43,-23.13,0,*7F
1520248064.89,43828,10.69,72262.3,4.85,-23.09,-22.73,0,*7D
1520248066.17,43829,10.69,72262.8,4.87,-23.33,-23.03,0,*71
1520248067.4,43830,10.69,72262.0,4.87,-23.39,-23.09,0,*79
1520248068.65,43831,10.69,72262.3,4.87,-24.15,-23.79,0,*76
1520248069.89,43832,10.69,72262.0,4.89,-24.67,-24.11,0,*77
1520248071.14,43833,10.69,72264.0,4.91,-23.29,-22.93,0,*7E
1520248072.41,43834,10.69,72266.3,4.91,-22.47,-21.97,0,*77
1520248073.7,43835,10.69,72264.5,4.91,-22.47,-22.17,0,*7D
1520248074.96,43836,10.69,72262.5,4.93,-22.57,-22.17,0,*7D
1520248076.18,43837,10.69,72262.5,4.97,-22.67,-22.27,0,*78
1520248077.39,43838,10.69,72266.8,4.95,-22.67,-22.27,0,*75
1520248078.62,43839,10.69,72266.3,4.95,-22.37,-21.97,0,*79
1520248079.84,43840,10.69,72264.3,4.97,-22.37,-22.07,0,*7F
1520248081.07,43841,10.69,72266.0,5.01,-23.43,-23.13,0,*76
1520248082.32,43842,10.69,72262.3,5.01,-24.11,-23.89,0,*76
1520248083.57,43843,10.69,72264.3,5.01,-23.89,-23.65,0,*73
1520248084.79,43844,10.69,72262.5,5.01,-25.23,-24.93,0,*7C
1520248086.03,43845,10.69,72264.3,5.01,-25.09,-24.87,0,*70
1520248087.29,43846,10.69,72260.5,4.97,-24.21,-23.89,0,*7F
1520248088.52,43847,10.69,72264.0,4.99,-23.19,-22.87,0,*73
1520248089.73,43848,10.69,72262.5,4.99,-22.97,-22.63,0,*71
1520248090.96,43849,10.69,72264.5,4.99,-22.67,-22.31,0,*78
1520248092.21,43850,10.69,72260.5,5.03,-22.47,-21.97,0,*7F
1520248093.42,43851,10.69,72260.8,5.07,-22.27,-21.93,0,*78
1520248094.64,43852,10.69,72266.5,5.07,-22.93,-22.73,0,*79
1520248095.92,43853,10.69,72264.0,5.09,-23.33,-23.03,0,*7B
1520248097.19,43854,10.69,72266.8,5.09,-22.73,-22.21,0,*78
1520248098.41,43855,10.69,72268.0,5.11,-23.29,-23.13,0,*7E
1520248099.67,43856,10.69,72266.8,5.11,-24.11,-23.85,0,*7E
1520248100.89,43857,10.69,72262.8,5.11,-23.03,-22.67,0,*76
1520248102.12,43858,10.69,72264.3,5.11,-23.19,-22.87,0,*7C
1520248103.36,43859,10.69,72264.0,5.13,-23.29,-22.83,0,*78